Tracking 28764 objects as of 12-Apr-2024
HD Live streaming from Space Station
objects crossing your sky now

METEOR 2-17 DEB

Track METEOR 2-17 DEB now!
10-day predictions


NORAD ID: 45521
Int'l Code: 1988-005BB
Perigee: 912.5 km
Apogee: 937.9 km
Inclination: 82.5 °
Period: 103.4 minutes
Semi major axis: 7296 km
RCS: Unknown
Launch date: January 30, 1988
Source: Commonwealth of Independent States (former USSR) (CIS)
Launch site: PLESETSK MISSILE AND SPACE COMPLEX (PKMTR)

Note: This is SATELLITE DEBRIS
Your satellite tracking list
Your tracking list is empty




NASA's NSSDC Master Catalog

Two Line Element Set (TLE):
1 45521U 88005BB  24102.03019496  .00001047  00000-0  79372-3 0  9992
2 45521  82.5147 211.9884 0017442 100.8179 259.4950 13.93026589526635
Source of the keplerian elements: AFSPC